When you browse on this site, cookies collect data to enhance your experience and personalize the content and advertising you see.
Visit our Privacy Policy to learn more. By continuing to use the site, you agree to this use of cookies and data.
  • In Hungary
  • List of Countries
  • For 7 days
  • Water Temperature
  • Weather Map
  • News
  • Weather Widgets
  • user-avatar
    Login

    Hourly Weather Starosemeykino

    Today, 19 October, Saturday

    Time Temperature Precipitation Wind Pressure Humidity
    00:00 +10°C° 0 mm 2 mps 757 mmHg 91%
    01:00 +9°C° 0 mm 2 mps 757 mmHg 91%
    02:00 +9°C° 0 mm 2 mps 758 mmHg 91%
    03:00 +9°C° 0 mm 2 mps 758 mmHg 95%
    04:00 +9°C° 0 mm 2 mps 758 mmHg 95%
    05:00 +9°C° 0 mm 2 mps 759 mmHg 95%
    06:00 +9°C° 0 mm 2 mps 759 mmHg 94%
    07:00 +9°C° 0 mm 2 mps 759 mmHg 93%
    08:00 +9°C° 0 mm 2 mps 760 mmHg 92%
    09:00 +9°C° 0 mm 3 mps 761 mmHg 88%
    10:00 +9°C° 0 mm 3 mps 761 mmHg 86%
    11:00 +9°C° 0 mm 3 mps 761 mmHg 84%
    12:00 +8°C° 0 mm 3 mps 762 mmHg 82%
    13:00 +8°C° 0 mm 3 mps 762 mmHg 79%
    14:00 +8°C° 0 mm 3 mps 762 mmHg 77%
    15:00 +8°C° 0 mm 3 mps 763 mmHg 75%
    16:00 +8°C° 0 mm 3 mps 763 mmHg 76%
    17:00 +8°C° 0 mm 3 mps 763 mmHg 76%
    18:00 +7°C° 0 mm 3 mps 764 mmHg 77%
    19:00 +5°C° 0 mm 3 mps 764 mmHg 79%
    20:00 +5°C° 0 mm 3 mps 764 mmHg 80%
    21:00 +4°C° 0 mm 3 mps 765 mmHg 82%
    22:00 +4°C° 0 mm 2 mps 765 mmHg 83%
    23:00 +4°C° 0 mm 2 mps 765 mmHg 84%

    Tomorrow, 20 October, Sunday

    Time Temperature Precipitation Wind Pressure Humidity
    00:00 +3°C° 0 mm 2 mps 765 mmHg 85%
    01:00 +3°C° 0 mm 2 mps 765 mmHg 86%
    02:00 +4°C° 0 mm 1 mps 766 mmHg 86%
    03:00 +3°C° 0 mm 1 mps 766 mmHg 87%
    04:00 +3°C° 0 mm 1 mps 766 mmHg 88%
    05:00 +3°C° 0 mm 1 mps 766 mmHg 88%
    06:00 +3°C° 0 mm 1 mps 766 mmHg 89%
    07:00 +4°C° 0 mm 1 mps 767 mmHg 85%
    08:00 +5°C° 0 mm 1 mps 767 mmHg 81%
    09:00 +6°C° 0 mm 1 mps 767 mmHg 77%
    10:00 +7°C° 0 mm 1 mps 767 mmHg 74%
    11:00 +9°C° 0 mm 1 mps 767 mmHg 72%
    12:00 +10°C° 0 mm 1 mps 767 mmHg 69%
    13:00 +10°C° 0 mm 1 mps 767 mmHg 69%
    14:00 +11°C° 0 mm 1 mps 767 mmHg 69%
    15:00 +10°C° 0 mm 2 mps 767 mmHg 69%
    16:00 +10°C° 0 mm 1 mps 767 mmHg 73%
    17:00 +9°C° 0 mm 1 mps 767 mmHg 78%
    18:00 +8°C° 0 mm 1 mps 768 mmHg 82%
    19:00 +8°C° 0 mm 1 mps 768 mmHg 83%
    20:00 +7°C° 0 mm 2 mps 768 mmHg 85%
    21:00 +6°C° 0 mm 2 mps 768 mmHg 86%
    22:00 +6°C° 0 mm 2 mps 768 mmHg 87%
    23:00 +6°C° 0 mm 2 mps 768 mmHg 87%

    Day after tomorrow, 21 October, Monday

    Time Temperature Precipitation Wind Pressure Humidity
    00:00 +6°C° 0 mm 2 mps 768 mmHg 87%
    01:00 +6°C° 0 mm 2 mps 768 mmHg 87%
    02:00 +5°C° 0 mm 2 mps 768 mmHg 86%
    03:00 +5°C° 0 mm 2 mps 768 mmHg 85%
    04:00 +5°C° 0 mm 2 mps 768 mmHg 86%
    05:00 +5°C° 0 mm 2 mps 767 mmHg 87%
    06:00 +5°C° 0 mm 2 mps 767 mmHg 88%
    07:00 +5°C° 0 mm 3 mps 767 mmHg 83%
    08:00 +7°C° 0 mm 3 mps 767 mmHg 79%
    09:00 +7°C° 0 mm 4 mps 767 mmHg 74%
    10:00 +8°C° 0 mm 4 mps 767 mmHg 70%
    11:00 +11°C° 0 mm 4 mps 767 mmHg 66%
    12:00 +12°C° 0 mm 5 mps 766 mmHg 62%
    13:00 +12°C° 0 mm 5 mps 766 mmHg 63%
    14:00 +12°C° 0 mm 5 mps 766 mmHg 63%
    15:00 +12°C° 0 mm 4 mps 765 mmHg 63%
    16:00 +10°C° 0 mm 5 mps 765 mmHg 66%
    17:00 +10°C° 0 mm 5 mps 765 mmHg 69%
    18:00 +9°C° 0 mm 5 mps 764 mmHg 72%
    19:00 +9°C° 0 mm 5 mps 764 mmHg 71%
    20:00 +8°C° 0 mm 5 mps 764 mmHg 71%
    21:00 +8°C° 0 mm 5 mps 763 mmHg 70%
    22:00 +8°C° 0 mm 5 mps 763 mmHg 71%
    23:00 +8°C° 0 mm 6 mps 762 mmHg 71%

    22 October, Tuesday

    Time Temperature Precipitation Wind Pressure Humidity
    00:00 +8°C° 0 mm 6 mps 762 mmHg 71%
    01:00 +8°C° 0 mm 6 mps 761 mmHg 73%
    02:00 +8°C° 0 mm 6 mps 761 mmHg 74%
    03:00 +8°C° 0 mm 6 mps 760 mmHg 75%
    04:00 +8°C° 0 mm 6 mps 760 mmHg 76%
    05:00 +8°C° 0 mm 6 mps 759 mmHg 78%
    06:00 +8°C° 0 mm 6 mps 759 mmHg 79%
    07:00 +8°C° 0.9 mm 5 mps 759 mmHg 82%
    08:00 +8°C° 0.9 mm 5 mps 759 mmHg 86%
    09:00 +8°C° 0.9 mm 5 mps 759 mmHg 90%
    10:00 +10°C° 0.1 mm 4 mps 759 mmHg 88%
    11:00 +11°C° 0.1 mm 4 mps 759 mmHg 87%
    12:00 +11°C° 0.1 mm 3 mps 759 mmHg 86%
    13:00 +12°C° 0.1 mm 3 mps 759 mmHg 83%
    14:00 +14°C° 0.1 mm 2 mps 760 mmHg 80%
    15:00 +14°C° 0.1 mm 2 mps 760 mmHg 78%
    16:00 +13°C° 0 mm 2 mps 760 mmHg 80%
    17:00 +12°C° 0 mm 2 mps 760 mmHg 82%
    18:00 +10°C° 0 mm 2 mps 760 mmHg 84%
    19:00 +10°C° 0 mm 1 mps 761 mmHg 84%
    20:00 +10°C° 0 mm 1 mps 761 mmHg 85%
    21:00 +10°C° 0 mm 1 mps 761 mmHg 85%
    22:00 +10°C° 0 mm 1 mps 761 mmHg 87%
    23:00 +9°C° 0 mm 1 mps 761 mmHg 89%

    23 October, Wednesday

    Time Temperature Precipitation Wind Pressure Humidity
    00:00 +8°C° 0 mm 2 mps 761 mmHg 90%
    01:00 +8°C° 0 mm 2 mps 761 mmHg 91%
    02:00 +7°C° 0 mm 2 mps 761 mmHg 92%
    03:00 +7°C° 0 mm 2 mps 762 mmHg 93%
    04:00 +7°C° 0 mm 2 mps 762 mmHg 92%
    05:00 +6°C° 0 mm 2 mps 762 mmHg 92%
    06:00 +6°C° 0 mm 2 mps 762 mmHg 92%
    07:00 +6°C° 0 mm 2 mps 762 mmHg 87%
    08:00 +7°C° 0 mm 2 mps 762 mmHg 83%
    09:00 +8°C° 0 mm 2 mps 762 mmHg 78%
    10:00 +9°C° 0 mm 2 mps 762 mmHg 72%
    11:00 +10°C° 0 mm 2 mps 762 mmHg 66%
    12:00 +10°C° 0 mm 2 mps 762 mmHg 60%
    13:00 +10°C° 0 mm 2 mps 762 mmHg 60%
    14:00 +10°C° 0 mm 2 mps 762 mmHg 61%
    15:00 +10°C° 0 mm 2 mps 762 mmHg 61%
    16:00 +10°C° 0 mm 2 mps 762 mmHg 66%
    17:00 +9°C° 0 mm 2 mps 762 mmHg 70%
    18:00 +8°C° 0 mm 2 mps 762 mmHg 75%
    19:00 +8°C° 0 mm 2 mps 762 mmHg 76%
    20:00 +7°C° 0 mm 2 mps 761 mmHg 78%
    21:00 +7°C° 0 mm 3 mps 761 mmHg 80%
    22:00 +7°C° 0 mm 3 mps 761 mmHg 79%
    23:00 +7°C° 0 mm 3 mps 761 mmHg 79%

    24 October, Thursday

    Time Temperature Precipitation Wind Pressure Humidity
    00:00 +7°C° 0 mm 3 mps 760 mmHg 79%
    01:00 +7°C° 0 mm 3 mps 760 mmHg 79%
    02:00 +6°C° 0 mm 4 mps 760 mmHg 79%
    03:00 +6°C° 0 mm 4 mps 760 mmHg 79%
    04:00 +7°C° 0 mm 4 mps 759 mmHg 79%
    05:00 +7°C° 0 mm 4 mps 759 mmHg 80%
    06:00 +8°C° 0 mm 5 mps 759 mmHg 80%
    07:00 +8°C° 0 mm 5 mps 759 mmHg 80%
    08:00 +9°C° 0 mm 5 mps 758 mmHg 81%
    09:00 +10°C° 0 mm 5 mps 758 mmHg 81%
    10:00 +12°C° 0 mm 5 mps 758 mmHg 80%
    11:00 +12°C° 0 mm 5 mps 759 mmHg 79%
    12:00 +13°C° 0 mm 5 mps 759 mmHg 78%
    13:00 +13°C° 0 mm 4 mps 759 mmHg 80%
    14:00 +13°C° 0 mm 4 mps 759 mmHg 81%
    15:00 +13°C° 0 mm 3 mps 759 mmHg 83%
    16:00 +12°C° 0 mm 3 mps 759 mmHg 86%
    17:00 +13°C° 0 mm 2 mps 759 mmHg 88%
    18:00 +13°C° 0 mm 2 mps 760 mmHg 91%
    19:00 +12°C° 0 mm 2 mps 760 mmHg 90%
    20:00 +12°C° 0 mm 1 mps 760 mmHg 90%
    21:00 +12°C° 0 mm 1 mps 760 mmHg 90%
    22:00 +12°C° 0 mm 1 mps 760 mmHg 89%
    23:00 +12°C° 0 mm 1 mps 760 mmHg 88%
    Show more